Weather History for Oxnard, CA

Change the Weather History Date:

Thursday, November 1, 2012

  Actual Average Record
Temperature  
Mean Temperature 58 °F -  
Max Temperature 64 °F 75 °F 104 °F (1997)
Min Temperature 53 °F 51 °F 40 °F (1970)
Degree Days  
Heating Degree Days 6    
Growing Degree Days 8 (Base 50)    
Moisture  
Dew Point 53 °F    
Average Humidity 81    
Maximum Humidity 94    
Minimum Humidity 63    
Precipitation  
Precipitation 0.00 in - - ()
Sea Level Pressure  
Sea Level Pressure 29.99 in    
Wind  
Wind Speed 4 mph (ENE)    
Max Wind Speed 9 mph    
Max Gust Speed 99 mph    
Visibility 8 miles    
Events      
Averages and records for this station are not official NWS values.
T = Trace of Precipitation, MM = Missing Value Source: NWS Daily Summary

Daily Weather History Graph

Daily Weather History Graph

Search for Another Location

Airport:

Trip Planner

Search our weather history database for the weather conditions in past years. The results will help you decide how hot, cold, wet, or windy it might be!

Date:

Astronomy

Nov. 01, 2012 Rise Set
Actual Time 7:17 AM PDT 6:03 PM PDT
Civil Twilight 6:51 AM PDT 6:29 PM PDT
Nautical Twilight 6:21 AM PDT 6:58 PM PDT
Astronomical Twilight 5:52 AM PDT 7:28 PM PDT
Moon 8:09 PM PDT (11/1) 9:48 AM PDT (11/1)
Length of Visible Light 11h 37m
Length of Day
10h 46m
Waning Gibbous, 92% of the Moon is Illuminated
Nov 1
Waning Gibbous
Nov 6
Last Quarter
Nov 13
New
Nov 20
First Quarter
Nov 28
Full

Hourly Weather History & Observations

Time (PDT) Temp. Dew Point Humidity Pressure Visibility Wind Dir Wind Speed Gust Speed Precip Events Conditions
12:51 AM 57.0 °F 54.0 °F 89% 30.00 in 5.0 mi ENE 3.5 mph - N/A   Overcast
1:51 AM 55.9 °F 54.0 °F 93% 30.00 in 5.0 mi NE 3.5 mph - N/A   Overcast
2:46 AM 55.4 °F 53.6 °F 94% 30.01 in 6.0 mi North 3.5 mph - N/A   Overcast
2:51 AM 55.9 °F 53.1 °F 90% 30.00 in 6.0 mi Calm Calm - N/A   Overcast
3:51 AM 55.9 °F 53.1 °F 90% 29.99 in 6.0 mi Calm Calm - N/A   Overcast
4:51 AM 54.0 °F 50.0 °F 86% 29.99 in 9.0 mi East 3.5 mph - N/A   Overcast
5:18 AM 53.6 °F 50.0 °F 88% 30.00 in 9.0 mi East 4.6 mph - N/A   Overcast
5:51 AM 54.0 °F 50.0 °F 86% 30.00 in 8.0 mi ENE 4.6 mph - N/A   Overcast
6:51 AM 54.0 °F 50.0 °F 86% 30.00 in 7.0 mi East 5.8 mph - N/A   Mostly Cloudy
7:12 AM 53.6 °F 50.0 °F 88% 30.00 in 6.0 mi ENE 4.6 mph 61.0 mph N/A   Partly Cloudy
7:51 AM 53.1 °F 50.0 °F 89% 30.01 in 5.0 mi ENE 3.5 mph - N/A   Scattered Clouds
8:10 AM 53.6 °F 50.0 °F 88% 30.02 in 6.0 mi ENE 3.5 mph - N/A   Mostly Cloudy
8:51 AM 55.9 °F 51.1 °F 84% 30.04 in 5.0 mi ENE 4.6 mph - N/A   Haze
9:51 AM 59.0 °F 52.0 °F 78% 30.03 in 6.0 mi Calm Calm - N/A   Haze
10:51 AM 61.0 °F 52.0 °F 72% 30.03 in 10.0 mi SSE 5.8 mph - N/A   Overcast
11:18 AM 62.6 °F 51.8 °F 68% 30.03 in 10.0 mi Calm Calm - N/A   Scattered Clouds
11:51 AM 63.0 °F 52.0 °F 67% 30.02 in 10.0 mi SW 3.5 mph - N/A   Partly Cloudy
12:51 PM 63.0 °F 52.0 °F 67% 30.01 in 10.0 mi SW 8.1 mph - N/A   Clear
1:51 PM 64.0 °F 51.1 °F 63% 29.99 in 10.0 mi SSW 8.1 mph - N/A   Clear
2:51 PM 64.0 °F 52.0 °F 65% 29.97 in 10.0 mi West 8.1 mph - N/A   Clear
3:51 PM 64.0 °F 53.1 °F 67% 29.97 in 10.0 mi West 9.2 mph - N/A   Clear
4:51 PM 62.1 °F 53.1 °F 72% 29.97 in 10.0 mi WSW 8.1 mph - N/A   Partly Cloudy
5:24 PM 60.8 °F 53.6 °F 77% 29.96 in 10.0 mi WSW 4.6 mph 99.0 mph N/A   Mostly Cloudy
5:51 PM 61.0 °F 54.0 °F 78% 29.97 in 10.0 mi WSW 6.9 mph - N/A   Mostly Cloudy
6:51 PM 61.0 °F 55.0 °F 81% 29.98 in 10.0 mi WNW 8.1 mph - N/A   Overcast
7:51 PM 60.1 °F 55.0 °F 83% 29.98 in 10.0 mi West 4.6 mph - N/A   Clear
8:35 PM 60.8 °F 55.4 °F 82% 29.98 in 10.0 mi Calm Calm - N/A   Mostly Cloudy
8:49 PM 60.8 °F 55.4 °F 82% 29.98 in 10.0 mi Calm Calm - N/A   Overcast
8:51 PM 61.0 °F 55.9 °F 83% 29.98 in 10.0 mi Calm Calm - N/A   Overcast
9:51 PM 57.9 °F 54.0 °F 87% 29.98 in 9.0 mi ENE 4.6 mph - N/A   Mostly Cloudy
10:09 PM 57.2 °F 53.6 °F 88% 29.98 in 9.0 mi ENE 6.9 mph - N/A   Mostly Cloudy
10:51 PM 57.9 °F 53.1 °F 84% 29.98 in 9.0 mi ENE 5.8 mph - N/A   Overcast
11:51 PM 57.0 °F 52.0 °F 83% 29.98 in 9.0 mi ENE 4.6 mph - N/A   Mostly Cloudy